TimeCST,TemperatureF,Dew PointF,Humidity,Sea Level PressureIn,VisibilityMPH,Wind Direction,Wind SpeedMPH,Gust SpeedMPH,PrecipitationIn,Events,Conditions,WindDirDegrees,DateUTC
12:53 AM,14.0,7.0,74,30.37,10.0,SSW,8.1,-,N/A,,Clear,210,2012-11-27 06:53:00
1:53 AM,16.0,8.1,71,30.35,10.0,SSW,8.1,-,N/A,,Clear,210,2012-11-27 07:53:00
2:53 AM,17.1,8.1,68,30.33,10.0,SSW,8.1,-,N/A,,Clear,210,2012-11-27 08:53:00
3:53 AM,15.1,8.1,74,30.31,10.0,South,6.9,-,N/A,,Clear,180,2012-11-27 09:53:00
4:53 AM,17.1,9.0,71,30.29,10.0,SSW,9.2,-,N/A,,Clear,200,2012-11-27 10:53:00
5:53 AM,18.0,9.0,68,30.27,10.0,SSW,6.9,-,N/A,,Clear,200,2012-11-27 11:53:00
6:53 AM,19.0,10.9,71,30.25,10.0,South,4.6,-,N/A,,Clear,190,2012-11-27 12:53:00
7:53 AM,24.1,16.0,71,30.22,10.0,SSW,11.5,-,N/A,,Clear,210,2012-11-27 13:53:00
8:53 AM,24.1,17.1,75,30.21,10.0,SSW,15.0,-,N/A,,Clear,210,2012-11-27 14:53:00
9:53 AM,30.0,19.9,66,30.20,10.0,SSW,12.7,-,N/A,,Clear,210,2012-11-27 15:53:00
10:53 AM,34.0,21.0,59,30.19,10.0,SW,10.4,20.7,N/A,,Clear,230,2012-11-27 16:53:00
11:53 AM,39.0,21.9,50,30.16,10.0,WSW,16.1,-,N/A,,Scattered Clouds,250,2012-11-27 17:53:00
12:53 PM,39.0,21.9,50,30.14,10.0,WSW,12.7,-,N/A,,Mostly Cloudy,240,2012-11-27 18:53:00
1:53 PM,37.0,21.9,54,30.13,10.0,West,9.2,-,N/A,,Clear,260,2012-11-27 19:53:00
2:53 PM,37.0,21.9,54,30.14,10.0,West,10.4,-,N/A,,Clear,270,2012-11-27 20:53:00
3:53 PM,36.0,21.9,57,30.16,10.0,West,9.2,-,N/A,,Clear,270,2012-11-27 21:53:00
4:53 PM,30.9,21.0,67,30.18,10.0,WNW,6.9,-,N/A,,Clear,290,2012-11-27 22:53:00
5:53 PM,30.0,21.0,69,30.20,10.0,NW,8.1,-,N/A,,Clear,310,2012-11-27 23:53:00
6:53 PM,28.9,21.0,72,30.23,10.0,NW,6.9,-,N/A,,Clear,310,2012-11-28 00:53:00
7:53 PM,28.9,21.0,72,30.25,10.0,NW,6.9,-,N/A,,Clear,320,2012-11-28 01:53:00
8:53 PM,25.0,19.0,78,30.27,10.0,WNW,6.9,-,N/A,,Clear,300,2012-11-28 02:53:00
9:53 PM,25.0,19.0,78,30.29,10.0,NW,9.2,-,N/A,,Clear,320,2012-11-28 03:53:00
10:53 PM,24.1,19.0,81,30.30,10.0,NNW,8.1,-,N/A,,Clear,330,2012-11-28 04:53:00
11:53 PM,23.0,18.0,81,30.32,10.0,NW,8.1,-,N/A,,Clear,320,2012-11-28 05:53:00